Вернуться в каталог

COSMOS 203

АктивенВоенныеLEO
NORAD 3129·PAYLOAD·🇷🇺 Russia

Запущен Feb 20, 1968 с Plesetsk Cosmodrome

Loading…

Ближайшие Пролёты (ближайшие 24 часа)

TLE

СвежийSource: Space-Track

Эпоха: Sep 14, 2026, 03:07 UTC

1 03129U 68011A   26257.13020976 -.00000172  00000-0 -39057-3 0  9990
2 03129  74.0536 320.0841 0011666 141.3853 242.5644 13.18306216817706

Отслеживайте COSMOS 203 в реальном времени с AllMySat

Download on the App Store